Location: Kerentrech
(47.7567°N, 3.3595°W)
Time: 03:56:04
(UTC+00:00)

IDEFIX/ARIANE 42P - Pass Details

Date: 17 February 2020
Orbit: 784 x 804 km, 98.3° (Epoch: 09 April)

Event Time Altitude Azimuth Distance (km) Brightness Sun altitude
Rises 03:45:52 0° 14° (NNE) 3,321 6.2 -35.6°
Reaches altitude 10° 03:48:14 10° 16° (NNE) 2,383 5.4 -35.2°
Enters shadow 03:50:28 26° 20° (NNE) 1,532 4.3 -34.9°
